User: anonymous   Login
Location: Caltech
(34.1382°N, 118.1253°W)
Time: 22:02:48
(UTC-07:00)
Language:

Iridium 70 - Orbit

View from above orbital plane
View from above orbital plane
View from above satellite
View from above satellite

Ground track
Ground track

The orbit data is extracted from the following two-line orbital elements,

1 25342U 98032A   18114.30502503 -.00000082  00000-0 -36387-4 0  9994
2 25342  86.3933  94.2626 0002385  84.1019 276.0449 14.34213838 43691
Epoch (UTC): 24 April 2018 07:19:14
Eccentricity: 0.0002385
inclination: 86.3933°
perigee height: 776 km
apogee height: 779 km
right ascension of ascending node: 94.2626°
argument of perigee: 84.1019°
revolutions per day: 14.34213838
mean anomaly at epoch: 276.0449°
orbit number at epoch: 4369

The dashed part of the orbit path shows where the satellite is in the earth's shadow,  

DLR